Location: Brunsen
(51.8651°N, 9.8610°E)
Time: 08:48:04
(UTC+00:00)

BREEZE-M DEB (TANK) - Pass Details

Date: 23 May 2024
Orbit: 288 x 16911 km, 49.4° (Epoch: 23 June)

Event Time Altitude Azimuth Distance (km) Brightness Sun altitude
Exits shadow 00:07:41 32° 193° (SSW) 1,076 3.7 -16.7°
Drops below altitude 10° 00:13:57 10° 133° (SE) 3,657 6.7 -16.4°
Sets 00:20:09 0° 127° (SE) 6,412 8.0 -16.2°
